SCP
0 0 0 0 0 0 0 0 0 0 0 0 0 0 0 0 0 0 0 0 0 0 0 0 0 0 0 0 0 0 0 0 0 0 0 0 0 0 0 0 0 0 0
0 0 0 0 0 0 0 0 0 0 0 0 0 0 0 0 0 0 0 0 0 0 0 0 0 0 0 0 0 0 0 0 0 0 0 0 0 0 0 0 0 0 0
0 0 0 0 0 0 0 0 0 0 0 0 0 0 0 0 0 0 0 0 0 0 0 0 0 0 0 0 0 0 0 0 0 0 0 0 0 0 0 0 0 0 0
0 0 0 0 0 0 0 0 0 0 0 0 0 0 0 0 0 0 0 0 0 0 0 0 0 0 0 0 0 0 0 0 0 0 0 0 0 0 0 0 0 0 0
0 0 0 0 0 0 0 0 0 0 0 0 0 0 0 0 0 0 0 0 0 0 0 0 0 0 0 0 0 0 0 0 0 0 0 0 0 0 0 0 0 0 0
0 0 0 0 0 0 0 0 0 0 0 0 0 0 0 0 0 0 0 0 0 0 0 0 0 0 0 0 0 0 0 0 0 0 0 0 0 0 0 0 0 0 0
0 0 0 0 0 0 0 0 0 0 0 0 0 0 0 0 0 0 0 0 0 0 0 0 0 0 0 0 0 0 0 0 0 0 0 0 0 0 0 0 0 0 0
0 0 0 0 0 0 0 0 0 1 1 1 0 0 0 0 0 0 0 0 0 0 0 0 0 0 0 0 0 0 0 0 0 0 0 0 0 0 0 0 0 0 0
0 0 0 0 0 0 0 0 1 1 1 1 1 0 0 0 0 0 0 0 0 0 0 0 0 0 0 0 0 0 0 0 0 0 0 0 0 0 0 0 0 0 0
0 0 0 1 1 1 1 1 1 1 1 1 1 0 0 0 0 0 0 0 0 0 0 0 0 0 0 0 0 0 0 0 0 0 0 0 0 0 0 0 0 0 0
0 1 1 1 1 1 1 1 1 1 1 1 0 0 0 0 0 0 0 0 0 0 0 0 0 0 0 0 0 0 0 0 0 0 0 0 0 0 0 0 0 0 0
1 1 1 1 1 1 1 1 1 1 1 0 0 0 0 0 0 0 0 0 0 0 0 0 0 0 0 0 0 0 0 0 0 0 0 0 0 0 0 0 0 0 0
1 1 1 1 1 1 1 0 0 0 0 0 0 0 0 0 0 0 0 0 0 0 0 0 0 0 0 0 0 0 0 0 0 0 0 0 0 0 0 0 0 0 0
1 1 1 1 1 0 0 0 0 0 0 0 0 0 0 0 0 0 0 0 0 0 0 0 0 0 0 0 0 0 0 0 0 0 0 0 0 0 0 0 0 0 0
0 0 0 0 0 0 0 0 0 0 0 0 0 0 0 0 0 0 0 0 0 0 0 0 0 0 0 0 0 0 0 0 0 0 0 0 0 0 0 0 0 0 0
0 0 0 0 0 0 0 0 0 0 0 0 0 0 0 0 0 0 0 0 0 0 0 0 0 0 0 0 0 0 0 0 0 0 0 0 0 0 0 0 0 0 0
0 0 0 0 0 0 0 0 0 0 0 0 0 0 0 0 0 0 0 0 0 0 0 0 0 0 0 0 0 0 0 0 0 0 0 0 0 0 0 0 0 0 0
0 0 0 0 0 0 0 0 0 0 0 0 0 0 0 0 0 0 0 0 0 0 0 0 0 0 0 0 0 0 0 0 0 0 0 0 0 0 0 0 0 0 0
0 0 0 0 0 0 0 0 0 0 0 0 0 0 0 0 0 0 0 0 0 0 0 0 0 0 0 0 -0 -0 -0 0 0 0 0 0 0 0 0 0 0 0 0
0 0 0 0 0 0 0 0 0 0 0 0 0 0 0 0 0 0 0 0 0 0 0 0 0 0 0 -0 -0 -0 0 0 0 0 0 0 0 0 0 0 0 0 0
0 0 0 0 0 0 0 0 0 0 0 0 0 0 0 0 0 0 0 0 0 0 0 0 -0 -0 -0 -0 -0 0 0 0 0 0 0 0 0 0 0 0 0 0 0
0 0 0 0 0 0 0 0 0 0 0 0 0 0 0 0 0 0 0 0 0 -0 -0 -0 -0 -0 -0 -0 0 0 0 0 0 0 0 0 0 0 0 0 0 0 0
0 0 0 0 0 0 0 0 0 0 0 0 0 0 0 0 0 0 0 0 0 -0 -0 0 0 0 0 0 0 0 0 0 0 0 0 0 0 0 0 0 0 0 0
0 0 0 0 0 0 0 0 0 0 0 0 0 0 0 0 0 0 0 0 0 0 0 0 0 0 0 0 0 0 0 0 0 0 0 0 0 0 0 0 0 0 0
-0 0 0 0 0 0 0 0 0 0 0 0 0 0 0 0 0 0 0 0 0 0 0 0 0 0 0 0 0 0 0 0 0 0 0 0 0 0 0 0 0 0 0
-0 -0 0 0 0 0 0 0 0 0 0 0 0 0 0 0 0 0 0 0 0 0 0 0 0 0 0 0 0 0 0 0 0 0 0 0 0 0 0 0 0 0 0
Wind_Speed
8 8 8 8 8 8 7 8 8 8 8 8 8 8 9 8 7 7 7 7 8 7 6 6 7 6 5 5 5 5 5 5 6 5 3 2 3 5 2 4 5 6 7
8 8 8 8 8 8 8 8 8 8 8 8 8 8 8 8 8 8 8 7 8 8 7 7 7 5 6 6 5 6 5 5 6 7 4 3 4 5 4 6 6 5 5
8 8 8 7 7 7 7 8 8 7 7 7 8 8 8 7 7 7 7 7 7 7 7 7 7 7 7 6 6 6 5 6 5 6 6 3 4 4 4 6 6 4 7
7 8 8 8 7 7 7 7 7 7 7 7 7 7 7 7 7 7 7 7 6 6 6 6 6 6 7 6 6 6 6 5 5 6 6 4 4 3 4 5 5 4 5
7 7 7 7 7 6 6 6 6 6 6 6 6 6 6 6 5 6 7 6 6 5 4 4 4 2 2 2 4 4 5 5 5 5 5 4 3 2 3 4 5 5 4
6 7 6 6 7 6 6 6 5 6 6 6 6 6 5 4 3 4 5 5 5 4 4 3 3 3 2 2 2 4 4 4 4 4 3 3 3 4 4 5 5 6 5
6 6 6 6 6 6 6 6 5 5 5 6 5 5 5 4 5 5 5 3 4 3 3 3 2 2 3 3 3 2 1 3 3 4 4 4 4 4 5 6 5 6 6
5 5 5 6 6 6 6 5 5 4 4 4 5 5 4 3 5 5 5 4 3 2 2 1 1 1 1 1 2 2 2 2 1 1 2 3 3 4 5 6 6 6 7
5 5 6 6 6 6 6 5 5 5 4 4 3 4 4 4 4 4 4 4 4 4 4 3 2 2 4 2 1 2 2 2 4 4 3 2 3 4 5 5 5 6 6
5 4 4 5 5 6 6 5 5 5 5 5 5 5 5 5 6 5 3 3 4 4 5 6 9 6 6 4 1 2 2 1 1 2 2 2 0 1 1 4 5 5 5
4 4 4 5 5 6 6 5 5 6 7 7 8 7 7 7 7 7 4 2 4 4 4 5 6 10 10 9 6 5 3 2 1 1 2 2 2 3 3 4 5 5 5
4 5 5 5 5 6 7 6 6 6 8 8 8 7 6 6 8 8 9 7 5 6 5 6 7 10 11 10 7 6 4 2 1 2 2 3 4 4 4 4 4 4 4
6 6 6 7 7 7 7 7 6 5 6 6 6 6 6 6 8 12 12 12 11 8 8 11 9 7 8 8 8 5 4 3 4 4 4 4 4 4 4 3 3 2 4
8 8 8 9 9 8 6 5 5 5 6 6 7 7 7 6 5 5 7 9 11 11 9 10 9 8 7 6 5 4 6 6 5 5 4 4 4 4 4 4 5 5 5
9 9 9 9 10 10 11 10 9 9 7 7 7 7 7 7 6 8 6 6 6 6 6 5 5 5 5 6 6 6 6 5 5 5 5 4 4 5 5 5 5 6 6
10 9 8 9 9 10 11 13 20 17 20 19 15 11 11 11 11 13 13 11 8 4 4 6 6 6 6 5 5 5 6 6 6 5 5 5 5 6 6 5 6 6 7
11 10 9 9 9 9 10 11 12 14 20 20 17 16 14 12 12 11 10 9 5 2 5 7 6 6 6 6 6 6 6 6 5 5 5 5 5 6 6 6 6 7 7
12 12 10 9 9 9 9 9 9 10 11 10 12 13 13 12 10 7 5 5 6 5 7 7 6 6 6 6 5 5 5 5 5 5 5 6 6 6 6 7 6 8 8
10 9 9 9 9 9 9 9 9 10 10 9 9 9 9 10 8 5 3 5 7 7 7 7 6 6 6 5 5 5 5 5 6 5 5 6 6 6 6 7 7 6 8
10 12 10 9 9 9 8 8 8 8 8 8 7 7 6 6 6 6 6 7 7 7 6 6 6 6 5 5 5 5 5 5 5 5 6 6 6 6 6 7 7 8 7
10 11 10 9 8 8 8 8 8 8 8 8 8 8 5 5 7 7 7 7 6 6 6 5 5 5 5 5 5 5 6 5 6 6 6 6 6 6 6 6 7 7 8
8 8 8 8 8 8 8 7 8 8 9 9 8 8 4 4 6 6 6 6 6 5 5 5 5 5 5 5 5 6 6 6 6 7 7 7 6 6 7 7 7 7 8
8 9 9 9 9 8 7 7 7 7 7 7 6 6 6 5 6 6 6 5 5 5 4 4 4 5 5 5 5 5 6 7 7 8 8 7 7 7 7 7 8 9 9
8 9 9 8 7 7 7 7 7 7 7 6 6 5 5 5 5 6 5 4 4 4 4 4 4 6 6 5 5 6 8 8 9 7 9 8 8 7 8 8 8 10 9
7 7 7 7 7 7 7 6 6 6 6 5 5 5 5 5 5 4 4 4 4 4 4 4 3 4 6 7 7 8 7 6 7 9 9 8 8 8 9 9 8 9 9
7 7 6 6 6 6 6 6 6 5 5 5 4 4 4 4 4 3 3 3 3 3 3 3 4 4 4 5 7 6 4 5 6 8 10 8 8 8 9 9 10 9 9
Wind_Direction
181 185 183 184 185 187 189 194 195 195 195 197 198 195 196 198 199 207 221 209 216 219 223 225 228 246 242 237 233 239 241 249 260 266 247 217 230 270 243 250 245 235 213
178 181 181 183 182 183 187 193 193 193 197 199 200 200 203 203 202 207 216 213 215 217 220 226 232 228 229 250 245 242 242 248 258 268 274 250 227 243 252 260 260 249 260
172 177 179 184 184 186 189 193 193 194 199 200 201 202 205 205 204 207 210 215 218 221 222 223 231 235 232 234 238 243 241 235 244 260 262 264 253 247 253 254 260 264 269
173 175 179 186 188 189 189 191 191 193 195 198 199 202 206 207 207 207 206 209 216 223 226 226 230 235 236 239 238 245 251 252 244 252 259 255 248 245 258 268 264 247 263
178 181 183 184 185 186 186 188 186 189 192 193 196 201 204 205 206 206 205 202 206 213 220 225 226 229 299 282 273 260 251 249 250 249 256 259 263 277 274 278 281 281 265
182 186 183 183 183 184 184 181 180 184 187 185 190 191 192 198 169 184 206 199 197 206 210 210 199 169 140 124 44 16 347 287 279 278 274 282 296 294 299 296 298 292 288
184 188 183 182 179 179 178 175 180 183 183 180 182 183 183 171 148 161 180 193 187 191 201 207 221 169 170 184 161 162 56 7 344 296 294 304 308 315 309 297 300 299 299
178 180 176 179 177 174 174 173 171 168 164 163 167 169 166 141 140 158 163 174 165 150 153 183 178 131 137 195 176 143 114 68 16 276 320 329 335 329 306 295 293 284 271
172 176 176 175 172 168 166 161 155 151 145 146 142 138 136 110 105 137 161 153 130 110 91 69 71 91 53 59 133 131 120 112 95 87 70 65 41 9 337 304 301 292 292
165 168 167 163 162 159 152 142 137 131 124 114 99 90 90 85 81 91 127 135 123 113 94 79 61 58 53 44 106 116 110 77 55 120 126 158 159 91 340 332 325 311 311
145 143 140 138 138 136 130 126 127 123 116 108 100 89 81 73 77 73 79 105 111 108 97 83 68 64 62 54 53 60 42 349 45 55 61 50 39 27 18 14 356 332 324
125 126 128 127 126 123 118 115 117 120 116 109 102 94 83 74 68 73 75 72 77 96 90 87 85 81 75 66 63 49 24 345 49 59 52 41 28 20 15 8 4 351 335
109 107 107 102 99 103 109 114 116 117 115 113 109 102 90 82 82 83 85 80 77 85 86 90 90 91 98 85 67 42 28 42 45 45 41 33 20 11 345 341 333 311 277
102 99 97 97 92 86 86 88 95 105 113 112 108 104 97 86 78 90 101 102 103 102 102 104 101 86 84 86 86 65 58 48 35 40 33 23 8 0 355 351 338 329 318
98 96 94 88 87 79 69 54 61 55 63 86 95 98 98 91 66 62 78 86 89 94 107 106 95 90 77 69 65 57 50 51 44 34 24 14 5 356 352 350 340 324 321
103 97 94 95 94 95 94 79 59 64 62 61 61 77 80 83 87 80 78 77 78 81 95 92 82 72 66 61 59 58 51 41 27 19 14 7 360 353 347 345 340 334 331
99 99 98 97 99 100 102 102 96 75 65 62 62 70 82 89 87 88 90 91 86 84 87 81 76 69 61 54 49 45 41 38 17 10 9 4 354 346 343 343 340 337 333
99 95 97 96 98 98 100 101 104 106 102 90 75 76 84 86 85 88 106 118 95 80 74 74 71 66 58 50 46 40 34 28 18 8 7 2 354 347 345 344 343 346 332
102 102 100 101 102 102 103 103 102 102 103 107 110 101 100 106 98 74 61 72 73 72 70 68 63 59 56 49 41 33 28 23 15 358 7 359 352 345 346 342 337 337 317
94 95 103 107 106 107 106 106 106 107 107 105 103 105 120 118 97 85 73 67 68 68 66 65 60 54 49 39 32 23 20 20 11 1 2 351 345 341 342 336 335 333 331
109 108 110 110 108 108 107 108 108 107 103 98 89 70 41 89 87 81 76 72 68 67 63 59 58 53 45 32 23 20 15 14 9 359 352 345 342 340 336 332 330 329 328
111 112 108 103 103 103 104 106 104 104 106 107 111 109 87 85 86 83 79 75 71 65 60 49 47 45 35 26 21 14 10 11 5 354 346 340 335 334 332 330 332 330 327
107 108 107 105 106 111 114 110 109 109 108 107 108 108 106 93 89 85 82 78 73 68 62 54 47 43 36 29 21 17 12 8 355 344 335 332 332 332 329 331 330 326 327
106 109 110 113 115 113 109 110 110 109 109 107 104 101 99 98 92 87 82 78 75 71 64 58 53 48 35 22 15 30 29 6 340 331 332 324 325 330 329 327 325 329 327
109 112 114 115 114 111 110 110 108 106 106 105 105 103 101 101 99 96 90 85 80 72 66 58 52 49 36 30 26 30 25 354 333 328 315 313 325 331 330 325 327 325 326
109 110 108 107 107 109 112 112 112 113 112 111 110 110 109 108 104 100 98 90 86 86 72 65 52 42 30 36 38 29 2 333 322 314 305 309 325 338 338 326 330 329 330